Probability
10 11 11 9 8 6 3 1 1 1 2 3 3 2 1 0 1 1 2 3 3 3 3 3 3 2 1 1 0 0 0 0 1 1 1 0 0 0 0 0 0 0 0
12 12 12 11 11 7 2 1 1 1 2 2 2 1 0 0 1 2 3 3 3 3 3 3 3 3 2 2 1 0 0 0 1 1 0 0 0 0 0 0 0 0 0
12 12 12 13 13 9 3 1 2 3 2 1 0 0 0 0 1 2 3 3 3 3 3 3 3 3 3 3 1 0 0 0 1 2 1 0 0 0 0 0 0 0 0
10 10 11 12 13 9 4 2 3 3 2 1 0 0 0 0 0 1 2 3 3 3 3 3 3 3 3 3 2 1 0 0 1 2 1 0 0 0 0 0 0 0 0
8 9 10 11 11 7 3 2 3 3 2 1 0 0 0 0 0 0 1 2 3 3 3 3 3 3 3 3 2 1 0 0 0 1 1 0 0 0 0 0 0 0 0
7 7 8 9 8 5 3 3 3 3 3 1 0 0 0 0 0 0 0 1 2 3 3 3 3 3 3 3 3 1 0 0 0 0 0 0 0 0 0 0 0 0 0
6 5 5 6 5 4 3 3 3 3 3 2 1 0 0 0 0 0 0 0 1 3 3 3 3 3 3 3 3 2 1 0 0 0 0 0 0 0 0 0 0 0 0
4 4 4 3 3 3 3 3 3 3 3 3 2 0 0 0 0 0 0 0 1 2 3 3 3 3 3 3 3 2 1 0 0 0 0 0 0 0 0 0 0 0 0
3 3 3 2 2 3 3 3 3 3 3 2 1 0 0 0 0 0 0 0 1 2 3 3 3 3 3 3 1 1 0 0 0 0 0 0 0 0 0 0 0 0 0
4 3 2 1 1 2 3 3 3 3 2 2 2 1 0 0 0 0 0 0 1 2 3 3 3 3 3 2 1 0 0 0 0 0 0 0 0 0 0 0 0 0 0
4 3 2 0 1 2 3 3 3 3 2 2 2 2 1 0 0 0 0 0 0 1 2 2 2 2 2 2 1 0 0 0 0 0 0 0 0 0 0 0 0 0 0
2 3 2 1 1 2 3 3 3 3 3 3 3 2 1 0 0 0 0 0 0 0 1 1 1 1 1 1 0 0 0 0 0 0 0 0 0 0 0 0 0 0 0
1 2 2 1 0 1 2 3 3 3 3 3 3 2 1 0 0 0 0 0 0 0 0 0 0 0 0 0 0 0 0 0 0 0 0 0 0 0 0 0 0 0 0
0 1 1 0 0 1 2 2 3 3 3 3 2 1 0 0 0 0 0 0 0 0 0 0 0 0 0 0 0 0 0 0 0 0 0 0 0 0 0 0 0 0 0
0 0 0 0 0 1 1 2 3 3 3 3 2 0 0 0 0 0 0 0 0 0 0 0 0 0 0 0 0 0 0 0 0 0 0 0 0 0 0 0 0 0 0
0 0 0 0 0 0 0 1 2 3 3 3 2 1 0 0 0 0 0 0 0 0 0 0 0 0 0 0 0 0 0 0 0 0 0 0 0 0 0 0 0 0 0
0 0 0 0 0 0 0 0 1 3 3 3 2 1 0 0 0 0 0 0 0 0 0 0 0 0 0 0 0 0 0 0 0 0 0 0 0 0 0 0 0 0 0
0 0 0 0 0 0 0 0 1 2 3 2 1 0 0 0 0 0 0 0 0 0 0 0 0 0 0 0 0 0 0 0 0 0 0 0 0 0 0 0 0 0 0
0 0 0 1 1 1 0 0 1 2 2 1 0 0 0 0 0 0 0 0 0 0 0 0 0 0 0 0 0 0 0 0 0 0 0 0 0 0 0 0 0 0 0
0 0 0 1 2 1 0 1 1 1 1 0 0 0 0 0 0 0 0 0 0 0 0 0 0 0 0 0 0 0 0 0 0 0 0 0 0 0 0 0 0 0 0
0 0 1 2 2 1 1 2 2 1 0 0 0 0 0 0 0 0 0 0 0 0 0 0 0 0 0 0 0 0 0 0 0 0 0 0 0 0 0 0 0 0 0
0 0 1 2 3 2 2 2 2 1 0 0 0 0 0 0 0 0 0 0 0 0 0 0 0 0 0 0 0 0 0 0 0 0 0 0 0 0 0 0 0 0 0
0 0 1 2 2 1 1 1 1 0 0 0 0 0 0 0 0 0 0 0 0 0 0 0 0 0 0 0 0 0 0 0 0 0 0 0 0 0 0 0 0 0 0
0 0 0 1 1 0 0 0 0 0 0 0 0 0 0 0 0 0 0 0 0 0 0 0 0 0 0 0 0 0 0 0 0 0 0 0 0 0 0 0 0 0 0
0 0 0 0 0 0 0 0 0 0 0 0 0 0 0 0 0 0 0 0 0 0 0 0 0 0 0 0 0 0 0 0 0 0 0 0 0 0 0 0 0 0 0
0 0 0 0 0 0 0 0 0 0 0 0 0 0 0 0 0 0 0 0 0 0 0 0 0 0 0 0 0 0 0 0 0 0 0 0 0 0 0 0 0 0 0
Wind_Speed
5 4 4 4 4 3 3 3 3 2 2 2 1 1 0 0 0 0 1 0 0 1 1 1 0 1 1 1 1 0 1 0 0 1 2 2 1 1 1 1 1 1 2
5 5 5 5 5 5 4 3 3 3 2 2 1 1 1 0 1 1 1 0 0 1 1 1 1 1 1 1 1 1 1 0 1 1 1 2 2 2 2 1 1 1 1
9 8 7 6 5 5 5 4 3 2 2 2 2 2 1 1 1 1 1 1 1 0 1 1 1 1 1 1 1 2 2 1 0 1 2 1 1 2 2 2 1 2 1
7 7 8 7 6 6 4 4 3 3 2 3 3 3 2 1 2 1 1 1 1 1 1 1 1 1 1 1 2 2 2 2 1 1 1 1 2 1 2 2 2 2 2
7 8 8 7 6 5 4 3 3 3 2 3 3 3 2 1 1 0 0 1 1 1 0 1 1 1 1 1 1 1 2 2 2 2 1 1 0 1 1 2 3 2 2
6 6 5 4 4 4 4 4 4 3 2 3 3 3 3 2 1 1 1 0 1 1 1 0 1 1 1 2 2 2 2 2 2 2 2 2 2 1 2 2 3 3 3
6 6 6 6 6 5 5 4 4 3 3 3 3 3 3 3 3 3 2 1 1 1 1 1 1 1 2 2 2 2 2 3 3 3 2 2 2 2 2 2 2 2 2
6 7 7 7 6 6 5 5 4 3 3 3 3 2 3 2 2 2 2 2 2 2 1 1 1 1 2 2 1 2 2 2 2 3 2 2 2 2 3 2 2 2 2
6 6 6 6 6 7 6 6 5 4 4 3 2 2 2 3 2 2 1 1 1 1 1 1 1 1 1 1 1 1 2 2 2 2 2 2 2 2 2 2 3 2 2
4 4 4 5 5 5 5 4 5 5 4 3 3 3 3 3 2 2 1 1 1 1 1 1 0 1 1 0 1 1 1 1 1 1 1 1 1 1 1 2 2 3 3
4 4 3 3 3 4 4 4 4 3 3 3 3 2 2 2 2 2 2 1 1 1 1 1 1 1 0 0 0 1 1 1 1 1 1 2 2 1 1 1 2 2 2
3 3 3 3 3 4 3 3 3 3 3 3 3 2 2 2 2 2 2 2 2 1 1 1 1 1 0 0 0 0 0 0 1 1 1 2 1 1 1 1 2 2 2
2 3 3 3 3 3 3 3 3 4 3 3 3 2 2 2 2 2 2 2 2 1 1 1 1 1 1 0 0 0 0 0 1 1 1 2 1 2 1 2 2 2 2
2 3 2 2 2 3 3 3 3 3 3 3 3 3 3 3 3 2 2 2 2 1 1 1 1 1 0 0 1 0 0 1 1 2 2 2 2 2 2 1 2 1 1
2 2 2 2 2 2 2 2 2 2 3 3 3 3 2 2 2 2 2 1 1 1 1 0 0 0 0 1 1 1 0 1 1 2 2 2 2 2 1 1 1 1 1
3 3 2 2 2 3 3 2 2 2 3 3 3 2 2 2 1 1 1 1 0 0 1 1 0 0 1 1 1 1 1 1 1 2 2 2 2 2 2 2 1 2 2
3 3 3 3 3 3 4 4 3 3 3 3 2 2 2 2 1 2 2 1 1 0 0 0 0 1 2 2 1 1 1 1 1 2 2 2 2 2 1 2 2 1 2
2 3 2 2 2 2 2 3 3 3 3 2 2 2 2 2 1 2 1 1 0 1 1 1 1 1 2 2 1 1 0 1 1 2 2 2 2 2 1 1 2 2 2
2 3 3 2 2 2 2 3 2 3 3 3 3 3 3 3 2 2 2 1 1 0 1 1 1 1 2 2 2 1 0 1 2 2 1 2 2 2 1 1 1 2 2
1 1 2 2 2 2 3 3 2 3 3 4 4 3 3 3 3 3 2 1 1 1 1 1 1 2 3 3 2 1 1 1 2 2 2 2 2 2 1 1 1 1 2
1 1 2 1 2 2 3 3 2 3 3 3 3 3 3 3 3 2 2 1 1 1 1 1 1 1 2 3 3 2 1 2 2 2 2 2 3 3 2 2 2 3 2
1 1 1 0 0 2 3 2 3 3 1 1 2 2 2 2 2 2 2 2 2 1 1 1 2 2 2 2 3 2 2 2 2 2 2 2 3 2 2 1 2 2 1
1 1 1 1 0 1 2 2 3 1 2 2 2 2 2 1 2 2 2 2 1 1 1 1 1 2 2 2 2 2 1 2 2 2 3 3 2 2 1 1 1 1 1
0 0 1 1 1 1 1 3 2 2 2 3 3 2 2 2 1 2 2 2 2 2 2 2 2 2 2 2 1 1 1 1 1 1 2 2 1 1 1 1 1 1 1
0 0 1 2 2 2 2 2 2 3 3 3 3 3 2 2 2 2 3 3 4 4 4 3 3 2 2 3 2 2 1 1 1 0 1 1 1 1 1 1 1 1 1
0 0 1 1 2 2 2 2 2 3 3 3 3 2 2 2 2 2 1 2 3 4 5 5 5 4 5 3 3 3 2 2 2 2 1 1 1 1 2 2 2 1 1
Wind_Direction
185 169 168 161 152 152 151 153 147 155 139 128 134 137 198 286 309 274 240 209 182 159 153 148 135 146 159 201 203 108 93 42 52 45 346 327 329 293 258 256 256 259 258
169 173 166 163 168 170 167 168 165 169 170 162 156 161 167 191 231 264 301 277 192 196 178 167 179 181 163 161 173 129 126 304 84 113 71 344 337 334 318 298 261 273 280
183 183 177 179 175 179 180 174 175 177 167 141 109 90 68 44 20 346 322 313 290 242 185 186 176 186 181 200 208 184 166 192 235 149 149 155 246 308 317 315 309 299 282
183 181 182 182 185 191 182 167 160 168 164 147 148 155 165 187 219 226 250 307 307 261 207 196 177 187 196 207 220 192 185 173 206 228 207 196 189 204 304 321 321 318 293
186 186 188 187 184 177 173 161 150 153 152 150 158 162 171 196 212 230 239 301 316 299 250 204 189 194 204 218 212 200 195 189 195 201 188 173 122 198 217 284 307 315 300
185 188 184 169 160 156 165 157 150 161 161 156 164 172 177 182 174 214 217 267 313 305 300 252 213 219 217 223 221 213 206 206 202 208 197 190 189 203 206 247 285 295 300
181 180 175 173 170 170 174 167 165 180 181 173 183 191 189 184 188 202 205 202 228 253 264 259 242 236 234 230 216 209 220 211 204 211 218 211 211 202 198 213 258 278 294
184 183 184 179 177 178 177 178 181 192 193 191 204 203 187 179 192 202 194 195 212 235 241 229 235 240 238 235 208 210 222 212 215 222 220 220 222 211 208 200 201 271 283
189 186 180 180 178 181 185 184 188 196 203 205 205 196 189 183 188 197 193 199 223 226 201 191 232 261 250 232 212 219 227 216 224 225 222 227 227 220 224 215 203 208 256
169 170 178 182 181 183 178 173 184 197 205 203 201 196 194 190 181 168 190 208 224 207 180 200 230 283 300 249 207 227 223 210 232 222 218 242 243 236 233 219 220 217 220
175 172 175 168 163 162 164 175 190 198 206 208 203 193 194 186 172 178 206 204 202 189 197 206 211 230 259 279 223 248 215 199 245 249 223 244 236 234 246 233 229 226 215
162 148 142 142 152 161 170 182 196 201 208 204 193 192 191 176 175 196 205 186 183 194 197 190 190 227 230 229 206 262 10 99 292 282 251 249 238 239 249 240 237 231 221
131 123 127 145 164 169 173 181 195 203 203 189 183 180 187 187 194 206 203 183 179 182 171 167 209 249 244 247 243 184 310 285 264 259 258 272 260 259 263 252 243 237 232
127 138 154 171 180 176 174 179 192 190 181 173 170 177 194 201 204 197 190 186 181 177 191 208 233 244 233 229 216 202 301 294 294 286 271 271 255 248 252 250 249 226 210
145 166 181 189 181 171 172 173 179 181 179 168 171 186 186 180 176 176 180 174 178 194 190 182 286 299 195 221 203 195 223 281 305 310 301 289 287 271 248 244 241 204 200
195 199 190 184 191 181 177 175 179 182 169 174 186 170 152 157 165 175 161 152 183 185 133 144 191 297 281 287 242 178 190 270 282 297 308 311 314 326 316 305 268 194 193
204 198 197 200 205 201 184 186 190 173 161 169 174 159 152 154 159 160 150 170 205 158 115 156 205 280 300 318 310 224 178 259 282 283 291 304 321 338 322 327 331 279 251
207 204 201 204 201 181 174 176 162 160 162 164 171 163 161 169 163 149 164 192 214 207 215 222 241 257 296 315 308 305 237 280 291 282 265 272 299 317 330 336 350 331 304
211 206 194 193 181 169 165 146 150 160 162 175 185 186 176 175 176 182 194 199 176 195 240 234 231 247 285 293 281 275 233 293 302 302 294 272 277 301 337 12 345 339 326
98 167 160 147 158 169 149 150 167 169 193 201 197 192 183 179 188 200 198 199 187 210 219 260 247 243 262 282 275 243 207 266 296 310 302 287 277 298 306 214 231 294 305
69 109 121 140 178 165 150 162 188 214 215 197 186 186 188 186 186 185 189 188 181 177 227 261 282 270 275 294 294 260 194 222 257 279 292 296 305 297 282 223 218 236 250
55 83 86 61 236 157 149 164 213 229 191 162 177 196 202 198 179 180 193 186 170 175 243 272 300 298 290 291 304 292 231 213 216 251 271 287 301 294 278 244 227 216 187
121 125 132 125 299 191 161 194 230 197 173 172 191 197 200 202 185 192 192 188 185 193 233 243 265 289 295 301 304 297 274 236 226 259 274 291 298 289 278 255 217 192 176
130 124 128 148 266 254 219 228 233 170 179 192 205 197 190 207 202 199 195 192 202 208 221 234 247 273 289 296 307 304 294 276 248 294 321 332 354 5 331 322 269 218 200
293 171 172 199 240 262 263 250 217 175 186 202 209 204 204 204 211 219 216 209 215 207 205 215 214 221 257 262 250 217 220 211 223 27 30 31 16 360 344 324 295 253 203
350 181 194 216 252 255 271 256 219 195 193 204 210 204 207 209 205 216 269 257 233 232 227 220 212 224 233 252 242 229 222 202 153 119 54 329 316 302 294 289 287 258 237